Regional Weather Roundup
Issued by NWS

Home | Current Version | Previous Version | Text Only | Print | Product List | Glossary Off
Versions: 1 2 3 4 5 6 7 8 9 10 11 12 13 14 15 16 17 18 19 20 21 22 23 24 25 26 27 28 29 30 31 32 33 34 35 36 37 38 39 40 41 42 43 44 45 46 47 48 49 50

000
ASUS43 KLOT 231300
RWRIL

ILLINOIS REGIONAL WEATHER ROUNDUP
NATIONAL WEATHER SERVICE CHICAGO/ROMEOVILLE IL
800 AM CDT SAT AUG 23 2014

NOTE: "FAIR" INDICATES FEW OR NO CLOUDS BELOW 12,000 FEET WITH NO
SIGNIFICANT WEATHER AND/OR OBSTRUCTIONS TO VISIBILITY.

* THESE STATIONS ARE NOT UNDER NWS QUALITY CONTROL. THEY ALSO MAY NOT
  REPORT WEATHER SUCH AS PRECIPITATION OR FOG.

ILZ001-002-007-009-015-016-024-231400-
NORTHWEST ILLINOIS

CITY           SKY/WX    TMP DP  RH WIND       PRES   REMARKS
MOLINE         PTSUNNY   76  73  91 E3        29.95R
STERLING*      CLOUDY    75  72  88 S3        29.97S
$$

ILZ003-004-008-010-011-017-018-231400-
NORTH CENTRAL ILLINOIS

CITY           SKY/WX    TMP DP  RH WIND       PRES   REMARKS
ROCKFORD       CLOUDY    75  72  90 SE6       29.99F FOG
FREEPORT*      PTSUNNY   73  72  97 SE3       30.00S FOG
ROCHELLE*      PTSUNNY   75  73  93 CALM      29.99S
$$

ILZ005-006-012>014-019>023-231400-
NORTHEAST ILLINOIS

CITY           SKY/WX    TMP DP  RH WIND       PRES   REMARKS
CHICAGO-OHARE  PTSUNNY   74  72  93 CALM      29.99R FOG
CHICAGO-MIDWAY PTSUNNY   78  75  90 W3        29.99R FOG     HX  81
AURORA         PTSUNNY   76  73  91 E5        29.99R FOG
WAUKEGAN       FOG       71  70  96 CALM      29.99R VSB 1/4
DUPAGE AIRPORT CLOUDY    75  73  93 CALM      29.99S FOG
WHEELING       FOG       74  72  93 CALM      30.01R VSB 1/2
NORTHERLY ISL    N/A     73  71  93 CALM        N/A
$$

LMZ740>746-231400-
SOUTHERN LAKE MICHIGAN

STATION/POSITION SKY/WX   TEMP    WIND        PRES    VSBY  WAVE
                          AIR SEA DIR/SP/G                  HT/PER
                          (F)     (DEG/KT/KT) (MB)    (MI)  (FT/S)
SOUTHERN BUOY              70 69   90/  6/  8 1015.1S         0
WAUKEGAN HARBOR            71        CALM       N/A
HARRISON CRIB              72     100/  3/  4   N/A
BURNHAM HARBOR             73      CALM  /  5   N/A
CALUMET HARBOR             72      CALM  /  2 1014.2R
BURNS HARBOR               73     180/  2/  4   N/A
MICHIGAN CITY              73     100/  2/  3   N/A
MICHIGAN CITY 6N           73 72  190/  4/  4   N/A           0
ST. JOSEPH                 74 73  110/  6/  8   N/A           1
$$

ILZ025>027-034>036-040-047-049-050-058-095>099-231400-
WEST-CENTRAL ILLINOIS

CITY           SKY/WX    TMP DP  RH WIND       PRES   REMARKS
QUINCY         PTSUNNY   79  76  90 SW7       29.95R FOG     HX  83
MACOMB*        CLOUDY    75  75 100 CALM      29.97R FOG
$$

ILZ028>032-037-038-041>044-048-051>054-059>061-231400-
CENTRAL ILLINOIS

CITY           SKY/WX    TMP DP  RH WIND       PRES   REMARKS
DECATUR        MOSUNNY   78  76  93 CALM      29.97R FOG     HX  81
PEORIA         MOSUNNY   78  74  87 E5        29.96S FOG     HX  81
SPRINGFIELD    SUNNY     79  77  94 E5        29.95R HX  83
TAYLORVILLE    NOT AVBL
$$

ILZ033-039-045-046-055>057-062-063-231400-
EAST-CENTRAL ILLINOIS

CITY           SKY/WX    TMP DP  RH WIND       PRES   REMARKS
CHAMPAIGN      FOG       75  74  96 E7        29.98R VSB 1/4
MATTOON        FOG       76  76 100 S6        29.96R VSB 1/4
$$

ILZ079-100>102-231400-
SOUTHWEST ILLINOIS

CITY           SKY/WX    TMP DP  RH WIND       PRES   REMARKS
ALTON          SUNNY     77  77 100 CALM      29.96R
BELLEVILLE     SUNNY     78  78 100 CALM      29.95R
CAHOKIA*       SUNNY     80  75  84 CALM      29.95R HX  85
$$

ILZ064>066-069>071-074>076-080>082-084>086-088>090-092>094-231400-
SOUTH-CENTRAL ILLINOIS

CITY           SKY/WX    TMP DP  RH WIND       PRES   REMARKS
CARBONDALE     SUNNY     80  75  84 S5        29.96S HX  85
MARION         PTSUNNY   81  77  89 S7        29.98R HX  88
MT. VERNON     PTSUNNY   79  73  83 SW5       29.97R HX  82
SALEM*         MOSUNNY   81  78  91 S5        29.96R HX  89
$$

ILZ067-068-072-073-078-083-087-091-231400-
SOUTHEAST ILLINOIS

CITY           SKY/WX    TMP DP  RH WIND       PRES   REMARKS
LAWRENCEVILLE  SUNNY     77  74  90 S5        29.97R
HARRISBURG*    MOSUNNY   79  78  97 CALM      29.97S HX  83
ROBINSON*      SUNNY     78  76  95 SE3       29.97S
$$

ABBREVIATIONS USED IN REMARKS
   TC - TEMPERATURE IN CELSIUS
  WCI - WIND CHILL INDEX
   HX - HEAT INDEX
  VSB - VISIBILITY
$$



USA.gov is the U.S. government's official web portal to all federal, state and local government web resources and services.